[[{"header":{"parameterUnit":"m.s-1","parameterCategory":1,"la1":30.2991,"la2":30.254,"lo1":-89.0895,"lo2":-89.0444,"dy":0.0017,"dx":0.0017,"nx":28,"ny":28,"refTime":"2025-06-20T21:00:00:Z","depth":0,"parameterNumber":2,"parameterNumberName":"U-component_of_WINDS"},"data":[0,0,0,0,0,0,0,0,0,0,0,0,0,0,0,0,0,0,0,0,0,0,0,0,0,0,0,0,0,0,0,0,0,0,0,0,0,0,0,0,0,0,0,0,0,0,0,0,0,0,0,0,0,0,0,0,0,0,1.5808,1.5808,0,1.5817,1.5817,1.5818,1.579,1.5789,1.5788,1.5788,1.5798,1.5799,1.58,0,0,0,0,0,0,0,0,0,0,0,0,0,1.5769,1.577,1.5808,1.5808,1.5808,1.5817,1.5817,1.5818,1.579,1.5789,1.5788,1.5787,1.5798,1.5799,1.58,0,0,0,0,0,0,0,0,0,0,0,0,0,1.5783,1.577,1.5808,1.5796,1.5795,1.5817,1.5817,1.5818,1.5791,1.5789,1.5788,1.5787,1.5797,1.5799,1.58,1.5836,0,0,1.5805,1.5806,0,0,0,0,0,0,0,0,1.5782,1.5784,1.5797,1.5797,1.5796,1.5801,1.5807,1.5824,1.5791,1.5792,1.5788,1.5786,1.58,1.5801,1.5806,1.5836,1.5836,1.5805,1.5806,1.5807,1.5808,0,0,0,0,0,0,0,1.5781,1.5784,1.5812,1.5798,1.5797,1.579,1.5791,1.581,1.5803,1.5792,1.579,1.5791,1.5799,1.5805,1.5806,1.5837,1.5805,1.5807,1.5808,1.5808,1.5898,1.5899,0,0,0,0,0,0,1.5781,1.5783,1.5811,1.5812,1.5785,1.5792,1.5793,1.5801,1.5803,1.5802,1.5792,1.579,1.5802,1.5804,1.5806,1.5849,1.5807,1.5809,1.5809,1.5897,1.5898,1.59,0,0,0,0,0,0,1.5781,1.5784,1.5811,1.5797,1.58,1.5794,1.5803,1.5802,1.5807,1.5803,1.5802,1.5799,1.5802,1.5804,1.5829,1.5849,1.5809,1.5811,1.5895,1.5897,1.5899,1.5933,0,0,0,0,0,0,1.578,1.5784,1.5797,1.5797,1.5801,1.5833,1.5804,1.5803,1.5809,1.5806,1.5809,1.5808,1.5801,1.5827,1.583,1.585,1.5812,1.5893,1.5896,1.5898,1.593,1.5936,1.5941,0,0,0,0,0,1.5778,1.5806,1.5798,1.5801,1.5816,1.5834,1.5836,1.5827,1.5811,1.5824,1.5822,1.5808,1.5846,1.5829,1.5833,1.5854,1.5892,1.5895,1.5898,1.5928,1.5935,1.5941,0,0,0,0,0,0,1.5807,1.5806,1.5796,1.5825,1.583,1.5829,1.5845,1.5834,1.5844,1.5841,1.5829,1.583,1.5857,1.5858,1.584,1.5889,1.5866,1.5871,1.5887,1.5894,1.59,1.5899,1.5813,0,0,0,0,0,1.5817,1.5831,1.5829,1.5854,1.5857,1.5851,1.5858,1.5851,1.5856,1.5858,1.5858,1.5863,1.5877,1.5885,1.5897,1.593,1.5931,1.5947,1.5952,1.5957,1.5961,1.598,1.5987,1.591,1.591,1.591,0,0,1.5837,1.5838,1.5847,1.586,1.5863,1.5879,1.5853,1.587,1.5882,1.586,1.5884,1.5884,1.589,1.592,1.5932,1.5921,1.5982,1.5961,1.5965,1.5966,1.5984,1.5991,1.5998,1.5913,1.5912,1.5912,0,0,1.5882,1.5883,1.5905,1.5909,1.5914,1.591,1.5916,1.5917,1.5917,1.594,1.5925,1.5939,1.5962,1.5967,1.5973,1.6022,1.601,1.6026,1.6055,1.6074,1.608,1.6085,1.6104,1.6111,1.603,1.603,1.603,0,1.5906,1.5928,1.5918,1.5937,1.5943,1.5925,1.5948,1.5952,1.5961,1.5967,1.5954,1.5983,1.5985,1.6017,1.6029,1.6034,1.604,1.6026,1.608,1.6085,1.609,1.6108,1.6114,1.6032,1.6032,1.6032,1.6031,0,1.5959,1.5975,1.5992,1.6001,1.601,1.6031,1.6024,1.6034,1.6027,1.6025,1.605,1.6052,1.6065,1.6072,1.6064,1.6103,1.6096,1.6082,1.6059,1.6099,1.6116,1.6122,1.6035,1.6034,1.6034,1.6033,0,0,1.6021,1.6025,1.6032,1.6037,1.6042,1.6054,1.6075,1.6088,1.6097,1.6105,1.6122,1.6143,1.613,1.6137,1.613,1.6146,1.6187,1.613,1.613,1.6141,1.6231,1.6242,1.625,1.6179,1.618,1.6181,1.6231,0,1.6066,1.61,1.6093,1.6127,1.6143,1.6127,1.6145,1.6151,1.615,1.6163,1.6162,1.6178,1.6159,1.6163,1.6179,1.6178,1.6205,1.6175,1.6196,1.6197,1.6195,1.6258,1.6269,1.6316,1.6237,1.6238,1.6239,0,1.6122,1.6132,1.6169,1.6173,1.6179,1.6195,1.6207,1.622,1.6227,1.6225,1.6234,1.6224,1.6246,1.6223,1.6253,1.6233,1.6241,1.6243,1.6244,1.6246,1.622,1.6262,1.6331,1.6338,1.6249,1.6248,1.6247,0,1.6165,1.6188,1.6213,1.6217,1.6222,1.6235,1.6238,1.6243,1.6252,1.6263,1.6269,1.6282,1.6289,1.63,1.6295,1.6278,1.6327,1.6303,1.6327,1.6327,1.6338,1.6337,1.6409,1.6342,1.6342,1.6342,1.6342,0,1.6216,1.6239,1.6232,1.6248,1.6274,1.6265,1.6291,1.6293,1.6298,1.6314,1.6301,1.6317,1.6309,1.6324,1.632,1.6347,1.635,1.635,1.6349,1.6351,1.6352,1.6357,1.6354,1.6344,1.6344,1.6343,1.6343,0,1.6268,1.6264,1.6291,1.6294,1.6296,1.6315,1.6318,1.6333,1.6332,1.6353,1.6357,1.6355,1.6373,1.6369,1.6388,1.6385,1.6419,1.6414,1.6417,1.6416,1.644,1.6438,1.6518,1.6529,1.6455,1.6456,1.6456,0,1.6301,1.6319,1.6325,1.6334,1.6338,1.6354,1.6364,1.6356,1.6367,1.6377,1.6391,1.6408,1.642,1.645,1.645,1.6465,1.6461,1.6488,1.6463,1.6465,1.6462,1.6461,1.6464,1.6493,1.6493,1.6494,1.6495,0,1.6361,1.6358,1.6372,1.6385,1.6397,1.6407,1.6416,1.6425,1.6419,1.6431,1.6449,1.6459,1.6479,1.6496,1.6511,1.6515,1.6504,1.6503,1.6509,1.6512,1.6514,1.6514,1.6431,1.6501,1.65,1.65,1.6499,1.6499,1.6405,1.642,1.6427,1.6443,1.6449,1.6459,1.6473,1.6474,1.6489,1.6505,1.65,1.6521,1.6529,1.6547,1.6553,1.657,1.656,1.6569,1.6571,1.6574,1.6577,1.6511,1.6572,1.6572,1.6572,1.6572,1.6572,0,1.6465,1.6468,1.6483,1.6497,1.651,1.6499,1.6509,1.6521,1.6539,1.6547,1.6561,1.6582,1.6599,1.6602,1.6618,1.6631,1.6627,1.6636,1.6635,1.6637,1.6585,1.6578,1.6639,1.6639,1.6639,1.6639,1.6639,1.6639,1.6497,1.6523,1.6522,1.6552,1.6555,1.6576,1.6583,1.6592,1.6598,1.6623,1.6637,1.6639,1.6645,1.6662,1.6678,1.6678,1.6685,1.6696,1.6695,1.6647,1.664,1.6633,1.6627,1.6697,1.6698,1.6745,1.6746,1.6746]},{"header":{"parameterUnit":"m.s-1","parameterCategory":1,"la1":30.2991,"la2":30.254,"lo1":-89.0895,"lo2":-89.0444,"dy":0.0017,"dx":0.0017,"nx":28,"ny":28,"refTime":"2025-06-20T21:00:00:Z","depth":0,"parameterNumber":3,"parameterNumberName":"V-component_of_WINDS"},"data":[0,0,0,0,0,0,0,0,0,0,0,0,0,0,0,0,0,0,0,0,0,0,0,0,0,0,0,0,0,0,0,0,0,0,0,0,0,0,0,0,0,0,0,0,0,0,0,0,0,0,0,0,0,0,0,0,0,0,-1.4545,-1.4545,0,-1.4602,-1.4602,-1.4603,-1.4633,-1.4633,-1.4633,-1.4633,-1.469,-1.4691,-1.4693,0,0,0,0,0,0,0,0,0,0,0,0,0,-1.4462,-1.4463,-1.4545,-1.4545,-1.4546,-1.4602,-1.4602,-1.4603,-1.4633,-1.4633,-1.4633,-1.4633,-1.469,-1.4691,-1.4693,0,0,0,0,0,0,0,0,0,0,0,0,0,-1.4506,-1.4463,-1.4545,-1.4567,-1.457,-1.4602,-1.4602,-1.4603,-1.4633,-1.4633,-1.4633,-1.4633,-1.4689,-1.4691,-1.4693,-1.4706,0,0,-1.47,-1.4701,0,0,0,0,0,0,0,0,-1.4503,-1.4509,-1.4563,-1.4566,-1.4569,-1.461,-1.4594,-1.4638,-1.4633,-1.4609,-1.4633,-1.4633,-1.4663,-1.4668,-1.4678,-1.4709,-1.4711,-1.47,-1.4702,-1.4703,-1.4703,0,0,0,0,0,0,0,-1.45,-1.4507,-1.4567,-1.4564,-1.4568,-1.4575,-1.4581,-1.4603,-1.4635,-1.4611,-1.4613,-1.462,-1.4665,-1.4676,-1.468,-1.4712,-1.47,-1.4702,-1.4704,-1.4705,-1.4758,-1.4758,0,0,0,0,0,0,-1.4494,-1.4504,-1.4565,-1.4569,-1.4536,-1.4577,-1.4584,-1.4597,-1.4635,-1.4641,-1.4619,-1.4621,-1.4672,-1.4677,-1.4682,-1.4701,-1.4703,-1.4705,-1.4706,-1.4758,-1.4758,-1.4758,0,0,0,0,0,0,-1.4492,-1.4499,-1.4563,-1.4537,-1.4546,-1.4578,-1.4592,-1.4598,-1.4609,-1.4641,-1.4647,-1.4625,-1.4672,-1.4679,-1.47,-1.4703,-1.4706,-1.4708,-1.4758,-1.4758,-1.4758,-1.4738,0,0,0,0,0,0,-1.4489,-1.4498,-1.4503,-1.4537,-1.4547,-1.458,-1.4593,-1.4599,-1.4613,-1.4615,-1.4648,-1.4653,-1.4673,-1.4697,-1.4703,-1.4706,-1.471,-1.4758,-1.4758,-1.4758,-1.4738,-1.4737,-1.4736,0,0,0,0,0,-1.4486,-1.4494,-1.4503,-1.451,-1.4554,-1.458,-1.4586,-1.4609,-1.4613,-1.4619,-1.464,-1.4652,-1.4702,-1.4699,-1.4706,-1.471,-1.4758,-1.4758,-1.4758,-1.4739,-1.4738,-1.4736,0,0,0,0,0,0,-1.4458,-1.4499,-1.4509,-1.4528,-1.4551,-1.4585,-1.4593,-1.4606,-1.4628,-1.4629,-1.4656,-1.4663,-1.4682,-1.4698,-1.4694,-1.4726,-1.4731,-1.4733,-1.4714,-1.4713,-1.4712,-1.4708,-1.4711,0,0,0,0,0,-1.4455,-1.4473,-1.4507,-1.4521,-1.4532,-1.456,-1.4573,-1.4588,-1.4613,-1.4622,-1.4645,-1.4668,-1.4689,-1.4702,-1.4723,-1.4741,-1.4749,-1.4747,-1.4746,-1.4745,-1.4746,-1.4759,-1.4759,-1.4759,-1.4759,-1.4759,0,0,-1.4447,-1.4471,-1.4481,-1.4516,-1.4535,-1.4554,-1.4568,-1.4587,-1.4601,-1.4625,-1.4647,-1.4665,-1.4692,-1.4713,-1.4723,-1.4727,-1.4749,-1.4746,-1.4745,-1.4746,-1.476,-1.476,-1.476,-1.4759,-1.4759,-1.4759,0,0,-1.4442,-1.4462,-1.4476,-1.4496,-1.4526,-1.4545,-1.4548,-1.4582,-1.4594,-1.4617,-1.4636,-1.4654,-1.4689,-1.4708,-1.4723,-1.4728,-1.4741,-1.4734,-1.4729,-1.4741,-1.4741,-1.4741,-1.4744,-1.4745,-1.4735,-1.4735,-1.4735,0,-1.4428,-1.4457,-1.4482,-1.4501,-1.4516,-1.4539,-1.4555,-1.4573,-1.4607,-1.4617,-1.4621,-1.4668,-1.4687,-1.4714,-1.4715,-1.4726,-1.4732,-1.473,-1.4739,-1.4739,-1.474,-1.4743,-1.4744,-1.4734,-1.4734,-1.4734,-1.4734,0,-1.444,-1.446,-1.4468,-1.4503,-1.4519,-1.4535,-1.4563,-1.4577,-1.4592,-1.4611,-1.4635,-1.466,-1.4688,-1.4695,-1.4709,-1.4724,-1.4726,-1.4734,-1.474,-1.4738,-1.4742,-1.4744,-1.4733,-1.4733,-1.4733,-1.4733,0,0,-1.4419,-1.4468,-1.447,-1.4487,-1.4522,-1.4538,-1.4557,-1.4584,-1.4596,-1.462,-1.4637,-1.4667,-1.4675,-1.4692,-1.4708,-1.4719,-1.4724,-1.4726,-1.4727,-1.4726,-1.4744,-1.4738,-1.4739,-1.4733,-1.4733,-1.4733,-1.4742,0,-1.442,-1.4454,-1.4478,-1.4503,-1.4523,-1.4547,-1.4563,-1.4587,-1.4605,-1.4625,-1.4646,-1.4668,-1.4676,-1.4687,-1.4698,-1.4721,-1.4728,-1.472,-1.4749,-1.475,-1.4742,-1.4741,-1.4734,-1.4742,-1.4743,-1.4744,-1.4744,0,-1.4426,-1.445,-1.4478,-1.4513,-1.4522,-1.4536,-1.4565,-1.4583,-1.4611,-1.4624,-1.4643,-1.4661,-1.4682,-1.4687,-1.4717,-1.4711,-1.4725,-1.4738,-1.4739,-1.4743,-1.4747,-1.4746,-1.4744,-1.4746,-1.4746,-1.4746,-1.4746,0,-1.4409,-1.4448,-1.4471,-1.4484,-1.4525,-1.4535,-1.4552,-1.458,-1.4596,-1.4621,-1.4632,-1.4658,-1.4673,-1.4693,-1.4718,-1.4719,-1.4747,-1.4753,-1.4759,-1.4758,-1.4764,-1.4763,-1.4765,-1.4771,-1.4771,-1.4771,-1.4771,0,-1.4408,-1.4425,-1.4464,-1.4478,-1.4497,-1.4525,-1.4543,-1.4563,-1.4588,-1.4606,-1.4628,-1.4645,-1.4676,-1.4696,-1.4716,-1.4739,-1.4745,-1.4757,-1.4762,-1.4755,-1.4754,-1.4765,-1.4765,-1.4771,-1.4771,-1.4771,-1.4771,0,-1.4393,-1.4419,-1.4446,-1.4483,-1.4493,-1.4506,-1.4538,-1.4553,-1.4574,-1.4597,-1.4604,-1.4636,-1.4662,-1.4689,-1.4723,-1.4736,-1.4759,-1.4766,-1.475,-1.4753,-1.4758,-1.4758,-1.4768,-1.4771,-1.4774,-1.4773,-1.4773,0,-1.4391,-1.4404,-1.4444,-1.4458,-1.4476,-1.4498,-1.4515,-1.4543,-1.4559,-1.4594,-1.4604,-1.4632,-1.4656,-1.4696,-1.4723,-1.475,-1.4758,-1.476,-1.4762,-1.4756,-1.476,-1.4759,-1.4761,-1.4759,-1.4759,-1.4758,-1.4758,0,-1.4385,-1.4398,-1.4422,-1.4451,-1.447,-1.4494,-1.4519,-1.4529,-1.4562,-1.458,-1.4607,-1.4626,-1.4662,-1.469,-1.4721,-1.4739,-1.4755,-1.4758,-1.4761,-1.4754,-1.4745,-1.4752,-1.4749,-1.4757,-1.4757,-1.4757,-1.4757,-1.4757,-1.4377,-1.4391,-1.4422,-1.4448,-1.447,-1.4493,-1.4509,-1.4532,-1.4556,-1.4588,-1.4603,-1.4631,-1.4661,-1.4704,-1.4722,-1.4745,-1.4749,-1.4753,-1.4754,-1.4755,-1.4754,-1.4741,-1.475,-1.475,-1.475,-1.475,-1.4751,0,-1.4374,-1.4395,-1.4419,-1.4454,-1.4475,-1.4488,-1.4516,-1.4533,-1.4558,-1.4584,-1.4608,-1.464,-1.4668,-1.4697,-1.4727,-1.4739,-1.4747,-1.4746,-1.4746,-1.475,-1.4748,-1.4743,-1.4739,-1.4739,-1.4739,-1.4739,-1.4739,-1.4739,-1.4375,-1.4399,-1.4417,-1.4453,-1.4474,-1.4502,-1.4518,-1.4539,-1.4561,-1.4596,-1.462,-1.4639,-1.4668,-1.47,-1.4726,-1.4734,-1.4744,-1.4742,-1.4752,-1.4749,-1.475,-1.4751,-1.4746,-1.4743,-1.4743,-1.4752,-1.4752,-1.4752]}]]